When you browse on this site, cookies collect data to enhance your experience and personalize the content and advertising you see.
Visit our Privacy Policy to learn more. By continuing to use the site, you agree to this use of cookies and data.
  • In Deutschland
  • Länderverzeichnis
  • Für 7 Tage
  • Wassertemperatur
  • Wetterkarte
  • Widgets
  • user-avatar
    Anmelden

    Stündliche Wetter Kalgoorlie

    Heute, 22 August, Donnerstag

    Zeit Temperatur Niederschläge Wind Luftdruck Luftfeuchtigkeit
    00:00 +12°C° 0 mm 5 m/S 736 mmHg 34%
    01:00 +12°C° 0 mm 5 m/S 736 mmHg 34%
    02:00 +10°C° 0 mm 5 m/S 735 mmHg 34%
    03:00 +10°C° 0 mm 5 m/S 735 mmHg 35%
    04:00 +10°C° 0 mm 5 m/S 735 mmHg 36%
    05:00 +9°C° 0 mm 5 m/S 735 mmHg 36%
    06:00 +10°C° 0 mm 6 m/S 735 mmHg 35%
    07:00 +11°C° 0 mm 7 m/S 735 mmHg 34%
    08:00 +12°C° 0 mm 8 m/S 735 mmHg 31%
    09:00 +15°C° 0 mm 8 m/S 735 mmHg 27%
    10:00 +17°C° 0 mm 9 m/S 735 mmHg 24%
    11:00 +19°C° 0 mm 9 m/S 734 mmHg 20%
    12:00 +21°C° 0 mm 9 m/S 734 mmHg 18%
    13:00 +22°C° 0 mm 9 m/S 733 mmHg 17%
    14:00 +23°C° 0 mm 8 m/S 732 mmHg 15%
    15:00 +22°C° 0 mm 7 m/S 732 mmHg 16%
    16:00 +22°C° 0 mm 6 m/S 732 mmHg 18%
    17:00 +21°C° 0 mm 5 m/S 731 mmHg 20%
    18:00 +20°C° 0 mm 5 m/S 731 mmHg 20%
    19:00 +17°C° 0 mm 5 m/S 731 mmHg 21%
    20:00 +16°C° 0 mm 5 m/S 731 mmHg 21%
    21:00 +16°C° 0 mm 5 m/S 731 mmHg 20%
    22:00 +16°C° 0 mm 5 m/S 731 mmHg 20%
    23:00 +15°C° 0 mm 5 m/S 730 mmHg 20%

    Morgen, 23 August, Freitag

    Zeit Temperatur Niederschläge Wind Luftdruck Luftfeuchtigkeit
    00:00 +15°C° 0 mm 6 m/S 730 mmHg 20%
    01:00 +15°C° 0 mm 6 m/S 729 mmHg 20%
    02:00 +14°C° 0 mm 6 m/S 729 mmHg 20%
    03:00 +14°C° 0 mm 6 m/S 729 mmHg 22%
    04:00 +13°C° 0 mm 5 m/S 729 mmHg 23%
    05:00 +13°C° 0 mm 5 m/S 729 mmHg 25%
    06:00 +13°C° 0 mm 6 m/S 729 mmHg 37%
    07:00 +14°C° 0 mm 7 m/S 730 mmHg 49%
    08:00 +15°C° 0 mm 8 m/S 730 mmHg 61%
    09:00 +14°C° 0 mm 7 m/S 730 mmHg 64%
    10:00 +14°C° 0 mm 7 m/S 730 mmHg 67%
    11:00 +12°C° 0 mm 7 m/S 730 mmHg 70%
    12:00 +14°C° 0 mm 7 m/S 730 mmHg 64%
    13:00 +15°C° 0 mm 7 m/S 730 mmHg 58%
    14:00 +16°C° 0 mm 7 m/S 729 mmHg 52%
    15:00 +16°C° 0 mm 7 m/S 730 mmHg 48%
    16:00 +16°C° 0 mm 7 m/S 731 mmHg 44%
    17:00 +15°C° 0 mm 6 m/S 731 mmHg 39%
    18:00 +14°C° 0 mm 6 m/S 732 mmHg 43%
    19:00 +13°C° 0 mm 6 m/S 732 mmHg 47%
    20:00 +11°C° 0 mm 6 m/S 733 mmHg 51%
    21:00 +12°C° 0 mm 5 m/S 733 mmHg 54%
    22:00 +10°C° 0 mm 5 m/S 734 mmHg 57%
    23:00 +10°C° 0 mm 4 m/S 735 mmHg 60%

    übermorgen, 24 August, Samstag

    Zeit Temperatur Niederschläge Wind Luftdruck Luftfeuchtigkeit
    00:00 +8°C° 0 mm 4 m/S 734 mmHg 65%
    01:00 +9°C° 0 mm 3 m/S 734 mmHg 70%
    02:00 +8°C° 0 mm 3 m/S 734 mmHg 75%
    03:00 +7°C° 0 mm 3 m/S 735 mmHg 77%
    04:00 +7°C° 0 mm 3 m/S 735 mmHg 79%
    05:00 +5°C° 0 mm 3 m/S 735 mmHg 82%
    06:00 +6°C° 0 mm 4 m/S 736 mmHg 80%
    07:00 +6°C° 0 mm 4 m/S 736 mmHg 79%
    08:00 +7°C° 0 mm 5 m/S 736 mmHg 77%
    09:00 +9°C° 0 mm 5 m/S 736 mmHg 69%
    10:00 +10°C° 0 mm 5 m/S 736 mmHg 60%
    11:00 +13°C° 0 mm 5 m/S 737 mmHg 51%
    12:00 +13°C° 0 mm 5 m/S 736 mmHg 47%
    13:00 +14°C° 0 mm 5 m/S 735 mmHg 43%
    14:00 +15°C° 0 mm 4 m/S 734 mmHg 39%
    15:00 +15°C° 0 mm 4 m/S 735 mmHg 38%
    16:00 +15°C° 0 mm 4 m/S 735 mmHg 37%
    17:00 +16°C° 0 mm 3 m/S 735 mmHg 37%
    18:00 +14°C° 0 mm 3 m/S 736 mmHg 39%
    19:00 +13°C° 0 mm 3 m/S 736 mmHg 42%
    20:00 +12°C° 0 mm 3 m/S 736 mmHg 44%
    21:00 +11°C° 0 mm 3 m/S 736 mmHg 48%
    22:00 +11°C° 0 mm 4 m/S 737 mmHg 52%
    23:00 +10°C° 0 mm 4 m/S 737 mmHg 56%

    25 August, Sonntag

    Zeit Temperatur Niederschläge Wind Luftdruck Luftfeuchtigkeit
    00:00 +8°C° 0 mm 4 m/S 736 mmHg 63%
    01:00 +8°C° 0 mm 5 m/S 736 mmHg 70%
    02:00 +7°C° 0 mm 5 m/S 736 mmHg 77%
    03:00 +7°C° 0 mm 5 m/S 735 mmHg 78%
    04:00 +6°C° 0 mm 5 m/S 735 mmHg 79%
    05:00 +6°C° 0 mm 5 m/S 735 mmHg 80%
    06:00 +6°C° 0 mm 5 m/S 736 mmHg 76%
    07:00 +7°C° 0 mm 6 m/S 736 mmHg 72%
    08:00 +8°C° 0 mm 6 m/S 736 mmHg 67%
    09:00 +9°C° 0 mm 6 m/S 736 mmHg 60%
    10:00 +11°C° 0 mm 6 m/S 736 mmHg 53%
    11:00 +14°C° 0 mm 6 m/S 736 mmHg 46%
    12:00 +14°C° 0 mm 6 m/S 735 mmHg 43%
    13:00 +15°C° 0 mm 5 m/S 735 mmHg 40%
    14:00 +16°C° 0 mm 5 m/S 734 mmHg 37%
    15:00 +15°C° 0 mm 5 m/S 734 mmHg 38%
    16:00 +15°C° 0 mm 5 m/S 734 mmHg 38%
    17:00 +15°C° 0 mm 5 m/S 734 mmHg 39%
    18:00 +14°C° 0 mm 4 m/S 734 mmHg 42%
    19:00 +13°C° 0 mm 4 m/S 735 mmHg 44%
    20:00 +12°C° 0 mm 4 m/S 735 mmHg 47%
    21:00 +12°C° 0 mm 4 m/S 735 mmHg 48%
    22:00 +10°C° 0 mm 5 m/S 735 mmHg 49%
    23:00 +10°C° 0 mm 5 m/S 735 mmHg 50%

    26 August, Montag

    Zeit Temperatur Niederschläge Wind Luftdruck Luftfeuchtigkeit
    00:00 +9°C° 0 mm 5 m/S 735 mmHg 51%
    01:00 +8°C° 0 mm 5 m/S 735 mmHg 52%
    02:00 +8°C° 0 mm 5 m/S 735 mmHg 54%
    03:00 +7°C° 0 mm 5 m/S 735 mmHg 57%
    04:00 +7°C° 0 mm 5 m/S 735 mmHg 61%
    05:00 +6°C° 0 mm 5 m/S 735 mmHg 64%
    06:00 +7°C° 0 mm 5 m/S 735 mmHg 62%
    07:00 +8°C° 0 mm 5 m/S 736 mmHg 61%
    08:00 +9°C° 0 mm 6 m/S 736 mmHg 59%
    09:00 +12°C° 0 mm 5 m/S 736 mmHg 52%
    10:00 +13°C° 0 mm 5 m/S 736 mmHg 45%
    11:00 +15°C° 0 mm 5 m/S 736 mmHg 38%
    12:00 +16°C° 0 mm 5 m/S 735 mmHg 36%
    13:00 +17°C° 0 mm 4 m/S 734 mmHg 34%
    14:00 +18°C° 0 mm 4 m/S 734 mmHg 32%
    15:00 +18°C° 0 mm 4 m/S 734 mmHg 33%
    16:00 +18°C° 0 mm 4 m/S 734 mmHg 34%
    17:00 +17°C° 0 mm 4 m/S 734 mmHg 34%
    18:00 +15°C° 0 mm 4 m/S 734 mmHg 37%
    19:00 +14°C° 0 mm 4 m/S 734 mmHg 39%
    20:00 +13°C° 0 mm 4 m/S 735 mmHg 41%
    21:00 +12°C° 0 mm 4 m/S 735 mmHg 43%
    22:00 +12°C° 0 mm 4 m/S 735 mmHg 44%
    23:00 +11°C° 0 mm 4 m/S 734 mmHg 46%

    27 August, Dienstag

    Zeit Temperatur Niederschläge Wind Luftdruck Luftfeuchtigkeit
    00:00 +11°C° 0 mm 4 m/S 734 mmHg 47%
    01:00 +10°C° 0 mm 4 m/S 734 mmHg 48%
    02:00 +10°C° 0 mm 4 m/S 734 mmHg 49%
    03:00 +8°C° 0 mm 4 m/S 734 mmHg 50%
    04:00 +8°C° 0 mm 4 m/S 734 mmHg 52%
    05:00 +7°C° 0 mm 5 m/S 734 mmHg 54%
    06:00 +8°C° 0 mm 5 m/S 734 mmHg 51%
    07:00 +9°C° 0 mm 6 m/S 734 mmHg 49%
    08:00 +10°C° 0 mm 6 m/S 734 mmHg 47%
    09:00 +13°C° 0 mm 6 m/S 734 mmHg 43%
    10:00 +16°C° 0 mm 6 m/S 734 mmHg 38%
    11:00 +19°C° 0 mm 6 m/S 733 mmHg 34%
    12:00 +20°C° 0 mm 6 m/S 733 mmHg 32%
    13:00 +21°C° 0 mm 5 m/S 732 mmHg 31%
    14:00 +23°C° 0 mm 5 m/S 731 mmHg 29%
    15:00 +22°C° 0 mm 4 m/S 731 mmHg 30%
    16:00 +22°C° 0 mm 4 m/S 731 mmHg 32%
    17:00 +22°C° 0 mm 3 m/S 731 mmHg 33%
    18:00 +21°C° 0 mm 4 m/S 731 mmHg 35%
    19:00 +19°C° 0 mm 5 m/S 731 mmHg 38%
    20:00 +17°C° 0 mm 5 m/S 731 mmHg 40%
    21:00 +17°C° 0 mm 5 m/S 731 mmHg 41%
    22:00 +16°C° 0 mm 6 m/S 731 mmHg 42%
    23:00 +16°C° 0 mm 6 m/S 730 mmHg 43%
    Mehr zeigen